[[{"header":{"parameterUnit":"m.s-1","parameterCategory":1,"la1":30.2992,"la2":30.254,"lo1":-89.0895,"lo2":-89.0443,"dy":0.0025,"dx":0.0025,"nx":19,"ny":19,"refTime":"2026-04-24T09:00:00:Z","depth":0,"parameterNumber":2,"parameterNumberName":"U-component_of_WINDS"},"data":[0,0,0,0.4527,0.453,0.4703,0.4704,0.4906,0.4908,0,0,0,0,0,0,0,0,0,0,0,0.4463,0.4464,0.4526,0.453,0.4703,0.4704,0.4906,0.4908,0,0,0,0,0,0,0,0,0,0,0,0.4463,0.4464,0.4465,0.4531,0.4703,0.4704,0.4905,0.4782,0,0,0,0,0,0,0,0,0,0,0.4617,0.4546,0.4463,0.4465,0.4532,0.4702,0.4704,0.4776,0.479,0.482,0,0.4842,0,0.4878,0.492,0.4921,0,0,0,0.454,0.4535,0.4593,0.4465,0.4533,0.4702,0.4628,0.4784,0.4799,0.4837,0.4845,0.4853,0.4881,0.4921,0.4922,0.5061,0.5061,0,0,0.453,0.4488,0.4582,0.4602,0.4573,0.4622,0.4633,0.4793,0.48,0.4846,0.4858,0.4884,0.4922,0.4924,0.5061,0.5061,0,0,0,0.4496,0.4481,0.4535,0.4593,0.4626,0.4627,0.4639,0.4792,0.4814,0.4861,0.4887,0.4923,0.4926,0.5061,0.5061,0.503,0,0,0,0.4491,0.4461,0.453,0.4506,0.4622,0.4711,0.4634,0.4802,0.4822,0.4886,0.4923,0.4927,0.5061,0.5061,0.503,0.5022,0,0,0,0.4456,0.4457,0.4478,0.4503,0.4576,0.4709,0.474,0.4808,0.4838,0.4921,0.4928,0.5061,0.5061,0.5031,0.5023,0.5046,0,0,0,0.4406,0.4448,0.4476,0.4533,0.4574,0.4688,0.474,0.4827,0.4894,0.4924,0.5061,0.5061,0.5031,0.5023,0.5046,0.5058,0.5059,0,0,0.4435,0.4449,0.4486,0.4517,0.4615,0.4665,0.476,0.4862,0.4909,0.5008,0.5012,0.503,0.5023,0.5046,0.5079,0.5079,0,0,0,0.4481,0.4506,0.4542,0.4603,0.4682,0.475,0.4842,0.488,0.4966,0.4951,0.5046,0.5043,0.5059,0.5067,0.5067,0.5083,0.5063,0.5063,0.5063,0.4459,0.4517,0.4582,0.466,0.472,0.4815,0.4869,0.4937,0.4978,0.5,0.5029,0.5042,0.5049,0.505,0.5066,0.504,0.504,0.504,0.504,0.4506,0.4551,0.4605,0.4687,0.4749,0.4819,0.4912,0.4939,0.5014,0.5024,0.5041,0.5047,0.5048,0.5065,0.5038,0.5039,0.5039,0.5039,0.5039,0.4498,0.453,0.4575,0.4672,0.4739,0.4819,0.4887,0.4941,0.4992,0.5009,0.5046,0.5047,0.5054,0.5023,0.5023,0.5023,0.5023,0.5023,0.5023,0.4471,0.4524,0.4575,0.4663,0.471,0.4779,0.4876,0.4924,0.4992,0.5025,0.5026,0.5065,0.5037,0.5029,0.5024,0.5024,0.5024,0.5023,0.5023,0.4496,0.45,0.4579,0.4626,0.4734,0.4798,0.4866,0.496,0.5008,0.504,0.5077,0.5047,0.5066,0.5067,0.506,0.5063,0.5063,0.5063,0.5063,0.4489,0.4505,0.4598,0.4671,0.4748,0.4817,0.4906,0.4982,0.5061,0.5094,0.5102,0.5098,0.5095,0.5116,0.5115,0.511,0.5126,0.5126,0.5126,0.4508,0.4534,0.4598,0.4675,0.4764,0.4839,0.4924,0.5006,0.5096,0.513,0.5121,0.5119,0.5113,0.5109,0.5141,0.5139,0.5131,0,0]},{"header":{"parameterUnit":"m.s-1","parameterCategory":1,"la1":30.2992,"la2":30.254,"lo1":-89.0895,"lo2":-89.0443,"dy":0.0025,"dx":0.0025,"nx":19,"ny":19,"refTime":"2026-04-24T09:00:00:Z","depth":0,"parameterNumber":3,"parameterNumberName":"V-component_of_WINDS"},"data":[0,0,0,4.6955,4.6955,4.6948,4.6948,4.6947,4.6947,0,0,0,0,0,0,0,0,0,0,0,4.6962,4.6963,4.6955,4.6955,4.6948,4.6948,4.6947,4.6947,0,0,0,0,0,0,0,0,0,0,0,4.6962,4.6963,4.6963,4.6955,4.6948,4.6948,4.6947,4.6949,0,0,0,0,0,0,0,0,0,0,4.6954,4.6967,4.6962,4.6963,4.6955,4.6948,4.6948,4.6949,4.6949,4.6954,0,4.6961,0,4.6955,4.6948,4.6948,0,0,0,4.6949,4.6967,4.6961,4.6963,4.6955,4.6948,4.6949,4.6949,4.6949,4.6954,4.6961,4.6961,4.6954,4.6948,4.6948,4.7,4.7001,0,0,4.695,4.6964,4.6961,4.6961,4.6964,4.695,4.6949,4.6949,4.6956,4.6961,4.6961,4.6954,4.6948,4.6948,4.7,4.7,0,0,0,4.6954,4.6964,4.6957,4.6961,4.696,4.695,4.6949,4.6956,4.6953,4.696,4.6954,4.6948,4.6948,4.6999,4.7,4.704,0,0,0,4.6954,4.6967,4.6958,4.6966,4.696,4.6958,4.6957,4.6953,4.6953,4.6954,4.6948,4.6948,4.6999,4.6999,4.7037,4.7056,0,0,0,4.6961,4.6967,4.6969,4.6967,4.6965,4.6958,4.6954,4.6953,4.6949,4.6948,4.6948,4.6998,4.6999,4.7035,4.7052,4.7076,0,0,0,4.6971,4.7001,4.697,4.7001,4.6965,4.6983,4.6954,4.6966,4.6969,4.6948,4.6999,4.7,4.7035,4.705,4.7074,4.7099,4.7111,0,0,4.7016,4.7007,4.7025,4.6996,4.7024,4.6983,4.7016,4.7004,4.6989,4.6997,4.6998,4.7038,4.7052,4.7075,4.7169,4.7178,0,0,0,4.7044,4.7057,4.7061,4.7067,4.7061,4.7057,4.704,4.7036,4.7043,4.6997,4.7052,4.7059,4.7073,4.7084,4.7092,4.7104,4.7005,4.7005,4.7005,4.7127,4.7111,4.714,4.7124,4.7129,4.7113,4.7116,4.7108,4.7085,4.71,4.7102,4.7161,4.7175,4.7181,4.7193,4.7113,4.7113,4.7113,4.7113,4.7194,4.7211,4.7186,4.7206,4.7188,4.7203,4.7189,4.7174,4.7186,4.7157,4.7167,4.7138,4.7192,4.7202,4.7116,4.7115,4.7115,4.7115,4.7115,4.7249,4.7254,4.7251,4.7261,4.7269,4.725,4.7265,4.7246,4.7229,4.7239,4.7242,4.7241,4.724,4.7242,4.7242,4.7242,4.7242,4.7243,4.7243,4.7306,4.7302,4.7317,4.7317,4.732,4.7322,4.7308,4.731,4.7308,4.7293,4.7293,4.7272,4.72,4.7183,4.7246,4.7245,4.7245,4.7245,4.7244,4.7382,4.7364,4.7387,4.7391,4.739,4.7402,4.738,4.7387,4.7385,4.7393,4.7371,4.732,4.7308,4.7301,4.7287,4.7373,4.7373,4.7373,4.7373,4.7429,4.7423,4.7445,4.7453,4.7458,4.7442,4.747,4.746,4.7447,4.7446,4.743,4.741,4.7404,4.7396,4.7387,4.7374,4.748,4.748,4.748,4.7477,4.747,4.7498,4.7487,4.7486,4.7486,4.7513,4.7522,4.7503,4.7484,4.7445,4.744,4.7407,4.7397,4.7377,4.7364,4.734,0,0]}]]